{"data":{"norad_id":57228,"epoch":"2026-05-24T21:14:01.491072Z","epoch_age_seconds":75151,"freshness":"FRESH","line1":"1 57228U 23094L   26144.88473948  .00000272  00000+0  19407-4 0  9995","line2":"2 57228  43.0056 319.9709 0001642 261.6194  98.4471 15.27578455158774","mean_motion":15.27578455,"eccentricity":0.0001642,"inclination_deg":43.0056,"raan_deg":319.9709,"arg_perigee_deg":261.6194,"mean_anomaly_deg":98.4471,"bstar":1.9407e-5,"rev_number":15877,"period_min":94.266844055483,"perigee_km":481.92711481276,"apogee_km":484.18032984597,"semimajor_km":6861.1907223294,"source":"CELESTRAK","updated_at":"2026-05-25T13:38:18.253805Z"}}